Location: *
(34.8620°S, 39.3380°E)
Time: 00:07:32
(UTC+00:00)

Cosmos 1943 Rocket - Pass Details

Date: 27 July 2021
Orbit: 811 x 845 km, 71.0° (Epoch: 20 September)

Event Time Altitude Azimuth Distance (km) Brightness Sun altitude
Exits shadow 02:24:27 41° 208° (SSW) 1,198 2.7 -23.8°
Maximum altitude 02:26:30 81° 289° (WNW) 845 2.0 -23.4°
Drops below altitude 10° 02:32:03 10° 16° (NNE) 2,412 4.9 -22.3°
Sets 02:34:26 0° 17° (NNE) 3,332 5.6 -21.8°
